CERISE

operational
NORAD ID: 23606 Int'l Des: 1995-033 Owner: CNES/DGA Country: F
LEOCIRCULARRETROGRADE

About CERISE

Description loading...

Live Position

Loading 3D Globe...

Upcoming Passes

Altitude History

Altitude vs Time

uPlot chart will show altitude changes over time

Two-Line Element Set

1 23606U 95033B 26103.04552566 .00010257 00000-0 32108-3 0 9994
2 23606 98.3218 311.8269 0007035 100.8817 259.3214 15.33328193669904
Epoch: Apr 13, 2026 • Age: 7 hours

Current Status

Altitude 495.7 km
Velocity 7.61 km/s
Sub-Earth Point -68.24°S, 142.62°E
Launch Date Jul 7, 1995
Age 30.7 years
Type other

Technical Details

Classification Payload
Mass 50.00 kg
Dry Mass 50.00 kg
Total Mass 50.00 kg
Length 0.60 m
Diameter 0.40 m
Span 6.50 m
Shape Box + Ant + 2 Pan
Manufacturer SSTL/AESPC
Bus Type UoSAT
Phase Status In Orbit
Owner/State CNES/DGA/F

Large Constellations

Loading constellations...